When you browse on this site, cookies collect data to enhance your experience and personalize the content and advertising you see.
Visit our Privacy Policy to learn more. By continuing to use the site, you agree to this use of cookies and data.
  • In Hungary
  • List of Countries
  • For 7 days
  • Water Temperature
  • Weather Map
  • News
  • Weather Widgets
  • user-avatar
    Login

    Hourly Weather Banja Luka

    Today, 29 May, Friday

    Time Temperature Precipitation Wind Pressure Humidity
    00:00 +10°C° 0.2 mm 1 mps 718 mmHg 97%
    01:00 +10°C° 0.2 mm 1 mps 718 mmHg 98%
    02:00 +10°C° 0 mm 1 mps 718 mmHg 98%
    03:00 +10°C° 0 mm 1 mps 718 mmHg 98%
    04:00 +9°C° 0 mm 1 mps 718 mmHg 98%
    05:00 +10°C° 0 mm 1 mps 718 mmHg 97%
    06:00 +10°C° 0 mm 1 mps 718 mmHg 96%
    07:00 +10°C° 0 mm 1 mps 718 mmHg 95%
    08:00 +11°C° 0 mm 1 mps 718 mmHg 89%
    09:00 +12°C° 0 mm 1 mps 718 mmHg 84%
    10:00 +13°C° 0 mm 2 mps 718 mmHg 79%
    11:00 +14°C° 0.1 mm 2 mps 718 mmHg 73%
    12:00 +16°C° 0.1 mm 2 mps 718 mmHg 67%
    13:00 +17°C° 0.1 mm 2 mps 718 mmHg 61%
    14:00 +16°C° 0.3 mm 2 mps 717 mmHg 66%
    15:00 +16°C° 0.3 mm 2 mps 717 mmHg 71%
    16:00 +16°C° 0.3 mm 2 mps 716 mmHg 76%
    17:00 +14°C° 0.3 mm 2 mps 716 mmHg 82%
    18:00 +13°C° 0.3 mm 1 mps 716 mmHg 88%
    19:00 +12°C° 0.3 mm 1 mps 716 mmHg 94%
    20:00 +10°C° 0.1 mm 0 mps 716 mmHg 95%
    21:00 +9°C° 0.1 mm 0 mps 716 mmHg 95%
    22:00 +8°C° 0.1 mm 0 mps 716 mmHg 95%
    23:00 +8°C° 0 mm 0 mps 716 mmHg 96%

    Tomorrow, 30 May, Saturday

    Time Temperature Precipitation Wind Pressure Humidity
    00:00 +8°C° 0 mm 0 mps 716 mmHg 96%
    01:00 +8°C° 0 mm 1 mps 716 mmHg 97%
    02:00 +9°C° 0 mm 1 mps 716 mmHg 97%
    03:00 +9°C° 0 mm 1 mps 716 mmHg 98%
    04:00 +9°C° 0 mm 1 mps 716 mmHg 98%
    05:00 +10°C° 0 mm 1 mps 716 mmHg 96%
    06:00 +10°C° 0 mm 1 mps 716 mmHg 94%
    07:00 +10°C° 0 mm 1 mps 716 mmHg 93%
    08:00 +12°C° 0 mm 2 mps 716 mmHg 83%
    09:00 +13°C° 0 mm 2 mps 716 mmHg 73%
    10:00 +15°C° 0 mm 2 mps 716 mmHg 64%
    11:00 +15°C° 0 mm 2 mps 716 mmHg 60%
    12:00 +16°C° 0 mm 3 mps 716 mmHg 56%
    13:00 +16°C° 0 mm 3 mps 716 mmHg 53%
    14:00 +16°C° 0 mm 3 mps 715 mmHg 55%
    15:00 +16°C° 0 mm 3 mps 715 mmHg 57%
    16:00 +16°C° 0 mm 3 mps 715 mmHg 59%
    17:00 +14°C° 0.1 mm 2 mps 715 mmHg 66%
    18:00 +13°C° 0.1 mm 2 mps 715 mmHg 73%
    19:00 +11°C° 0.1 mm 1 mps 715 mmHg 80%
    20:00 +10°C° 0 mm 1 mps 715 mmHg 82%
    21:00 +8°C° 0 mm 1 mps 715 mmHg 83%
    22:00 +7°C° 0 mm 1 mps 715 mmHg 84%
    23:00 +7°C° 0 mm 1 mps 715 mmHg 84%

    Day after tomorrow, 31 May, Sunday

    Time Temperature Precipitation Wind Pressure Humidity
    00:00 +6°C° 0 mm 1 mps 715 mmHg 85%
    01:00 +6°C° 0 mm 1 mps 715 mmHg 85%
    02:00 +6°C° 0 mm 1 mps 715 mmHg 86%
    03:00 +5°C° 0 mm 1 mps 714 mmHg 87%
    04:00 +5°C° 0 mm 1 mps 714 mmHg 88%
    05:00 +8°C° 0 mm 1 mps 715 mmHg 81%
    06:00 +10°C° 0 mm 1 mps 715 mmHg 75%
    07:00 +12°C° 0 mm 1 mps 715 mmHg 68%
    08:00 +14°C° 0 mm 1 mps 715 mmHg 61%
    09:00 +15°C° 0 mm 1 mps 715 mmHg 54%
    10:00 +16°C° 0 mm 2 mps 715 mmHg 47%
    11:00 +17°C° 0 mm 2 mps 715 mmHg 45%
    12:00 +17°C° 0 mm 2 mps 715 mmHg 44%
    13:00 +18°C° 0 mm 2 mps 714 mmHg 43%
    14:00 +17°C° 0 mm 2 mps 714 mmHg 47%
    15:00 +16°C° 0 mm 3 mps 714 mmHg 52%
    16:00 +14°C° 0 mm 3 mps 714 mmHg 56%
    17:00 +14°C° 0.3 mm 2 mps 713 mmHg 69%
    18:00 +12°C° 0.3 mm 1 mps 713 mmHg 81%
    19:00 +10°C° 0.3 mm 1 mps 713 mmHg 94%
    20:00 +10°C° 0.4 mm 1 mps 713 mmHg 95%
    21:00 +10°C° 0.4 mm 1 mps 713 mmHg 96%
    22:00 +10°C° 0.4 mm 1 mps 713 mmHg 97%
    23:00 +10°C° 0.5 mm 1 mps 713 mmHg 98%

    1 June, Monday

    Time Temperature Precipitation Wind Pressure Humidity
    00:00 +10°C° 0.5 mm 1 mps 712 mmHg 98%
    01:00 +10°C° 0.5 mm 1 mps 712 mmHg 98%
    02:00 +10°C° 0.5 mm 1 mps 712 mmHg 98%
    03:00 +10°C° 0.5 mm 1 mps 712 mmHg 98%
    04:00 +10°C° 0.5 mm 1 mps 711 mmHg 98%
    05:00 +10°C° 1.2 mm 1 mps 711 mmHg 98%
    06:00 +10°C° 1.2 mm 1 mps 711 mmHg 98%
    07:00 +10°C° 1.2 mm 1 mps 712 mmHg 98%
    08:00 +10°C° 1.1 mm 2 mps 712 mmHg 98%
    09:00 +10°C° 1.1 mm 2 mps 712 mmHg 98%
    10:00 +10°C° 1.1 mm 2 mps 712 mmHg 98%
    11:00 +10°C° 1 mm 2 mps 712 mmHg 98%
    12:00 +12°C° 1 mm 2 mps 712 mmHg 98%
    13:00 +12°C° 1 mm 2 mps 712 mmHg 98%
    14:00 +12°C° 0.5 mm 2 mps 712 mmHg 96%
    15:00 +13°C° 0.5 mm 2 mps 712 mmHg 95%
    16:00 +13°C° 0.5 mm 2 mps 712 mmHg 93%
    17:00 +13°C° 0.4 mm 1 mps 712 mmHg 94%
    18:00 +12°C° 0.4 mm 1 mps 712 mmHg 96%
    19:00 +11°C° 0.4 mm 1 mps 712 mmHg 97%
    20:00 +11°C° 0 mm 1 mps 712 mmHg 97%
    21:00 +10°C° 0 mm 1 mps 713 mmHg 97%
    22:00 +8°C° 0 mm 0 mps 713 mmHg 97%
    23:00 +9°C° 0 mm 0 mps 713 mmHg 97%

    2 June, Tuesday

    Time Temperature Precipitation Wind Pressure Humidity
    00:00 +9°C° 0 mm 0 mps 712 mmHg 97%
    01:00 +9°C° 0 mm 0 mps 712 mmHg 97%
    02:00 +9°C° 0.1 mm 0 mps 712 mmHg 97%
    03:00 +9°C° 0.1 mm 0 mps 712 mmHg 97%
    04:00 +9°C° 0.1 mm 0 mps 712 mmHg 98%
    05:00 +10°C° 0.3 mm 0 mps 713 mmHg 98%
    06:00 +10°C° 0.3 mm 0 mps 713 mmHg 98%
    07:00 +11°C° 0.3 mm 1 mps 713 mmHg 98%
    08:00 +12°C° 0.5 mm 1 mps 713 mmHg 97%
    09:00 +12°C° 0.5 mm 1 mps 713 mmHg 96%
    10:00 +13°C° 0.5 mm 1 mps 714 mmHg 95%
    11:00 +14°C° 0.4 mm 1 mps 713 mmHg 89%
    12:00 +16°C° 0.4 mm 1 mps 713 mmHg 83%
    13:00 +17°C° 0.4 mm 2 mps 713 mmHg 77%
    14:00 +17°C° 0.5 mm 2 mps 713 mmHg 80%
    15:00 +17°C° 0.5 mm 2 mps 713 mmHg 82%
    16:00 +18°C° 0.5 mm 1 mps 712 mmHg 84%
    17:00 +16°C° 0.3 mm 1 mps 712 mmHg 88%
    18:00 +15°C° 0.3 mm 1 mps 712 mmHg 92%
    19:00 +13°C° 0.3 mm 1 mps 712 mmHg 96%
    20:00 +13°C° 0 mm 1 mps 712 mmHg 96%
    21:00 +12°C° 0 mm 1 mps 712 mmHg 96%
    22:00 +10°C° 0 mm 0 mps 712 mmHg 97%
    23:00 +9°C° 0 mm 0 mps 712 mmHg 97%

    3 June, Wednesday

    Time Temperature Precipitation Wind Pressure Humidity
    00:00 +9°C° 0 mm 0 mps 712 mmHg 96%
    01:00 +10°C° 0 mm 1 mps 711 mmHg 96%
    02:00 +9°C° 0 mm 1 mps 711 mmHg 96%
    03:00 +9°C° 0 mm 1 mps 711 mmHg 96%
    04:00 +9°C° 0 mm 1 mps 711 mmHg 96%
    05:00 +10°C° 0 mm 0 mps 712 mmHg 93%
    06:00 +12°C° 0 mm 0 mps 712 mmHg 90%
    07:00 +14°C° 0 mm 0 mps 712 mmHg 86%
    08:00 +16°C° 0 mm 0 mps 713 mmHg 76%
    09:00 +20°C° 0 mm 1 mps 713 mmHg 66%
    10:00 +23°C° 0 mm 1 mps 714 mmHg 55%
    11:00 +23°C° 0.2 mm 1 mps 714 mmHg 57%
    12:00 +23°C° 0.2 mm 1 mps 713 mmHg 59%
    13:00 +23°C° 0.2 mm 2 mps 713 mmHg 61%
    14:00 +22°C° 0.8 mm 1 mps 713 mmHg 69%
    15:00 +21°C° 0.8 mm 1 mps 713 mmHg 76%
    16:00 +20°C° 0.8 mm 1 mps 712 mmHg 84%
    17:00 +19°C° 0.6 mm 1 mps 712 mmHg 87%
    18:00 +16°C° 0.6 mm 0 mps 712 mmHg 90%
    19:00 +15°C° 0.6 mm 0 mps 712 mmHg 93%
    20:00 +14°C° 0.1 mm 0 mps 712 mmHg 94%
    21:00 +14°C° 0.1 mm 1 mps 712 mmHg 94%
    22:00 +13°C° 0.1 mm 1 mps 713 mmHg 94%
    23:00 +13°C° 0 mm 1 mps 713 mmHg 94%
    Show more